Location: Mount Wilson Observatory
(34.2257°N, 118.0571°W)
Time: 06:22:25
(UTC-08:00)

ATLAS 3B CENTAUR R/B - Visible Passes

Search period start: 07 December 2016 00:00
Search period end: 17 December 2016 00:00
Orbit: 226 x 6342 km, 28.1° (Epoch: 07 December)

Date Brightness Start Highest point End Pass type
(mag) Time Alt. Az. Time Alt. Az. Time Alt. Az.
07 Dec 4.3 17:38:50 10° WSW 18:02:15 66° S 18:08:44 18° ESE visible
07 Dec 4.8 20:41:16 10° W 20:46:14 22° WSW 20:46:14 22° WSW visible
08 Dec 4.7 17:10:56 10° WSW 17:37:31 68° S 17:46:07 11° E visible
08 Dec 4.3 20:15:04 10° W 20:23:36 32° WSW 20:23:36 32° WSW visible
09 Dec 4.9 16:42:38 10° WSW 17:12:25 69° S 17:22:19 10° E visible
09 Dec 3.9 19:48:22 10° W 20:00:50 42° SW 20:00:50 42° SW visible
10 Dec 3.6 19:21:09 10° W 19:36:41 49° SSW 19:37:56 45° S visible
11 Dec 3.8 18:53:24 10° W 19:11:51 54° SSW 19:14:52 38° SSE visible
12 Dec 4.1 18:25:06 10° W 18:46:43 59° SSW 18:51:40 27° SE visible
13 Dec 4.5 17:56:17 10° W 18:21:14 63° SSW 18:28:20 18° ESE visible
13 Dec 5.2 21:01:14 10° W 21:05:45 16° WSW 21:05:45 16° WSW visible
14 Dec 4.9 17:27:01 10° W 17:55:23 66° SSW 18:04:48 10° ESE visible
14 Dec 4.9 20:33:13 10° W 20:42:11 22° SW 20:42:15 22° SW visible
15 Dec 5.1 16:57:22 10° W 17:29:08 69° SSW 17:39:50 10° ESE visible
15 Dec 4.6 20:04:53 10° W 20:16:58 27° SW 20:18:39 26° SSW visible
16 Dec 5.2 16:27:27 10° W 17:02:29 71° S 17:14:38 10° ESE visible
16 Dec 4.5 19:36:05 10° W 19:51:27 33° SW 19:54:53 26° S visible
